Location: Unspecified
(0.0000°N, 0.0000°E)
Time: 00:00:44
(UTC+00:00)

N. Korean satellite - Pass Details

Date: 18 February 2020
Orbit: 456 x 505 km, 97.2° (Epoch: 26 February)

Event Time Altitude Azimuth Distance (km) Brightness Sun altitude
Rises 05:02:14 0° 23° (NNE) 2,582 10.4 -17.5°
Reaches altitude 10° 05:04:24 10° 31° (NNE) 1,697 9.5 -17.0°
Maximum altitude 05:07:50 38° 101° (E) 763 8.2 -16.2°
Drops below altitude 10° 05:11:14 10° 170° (S) 1,685 9.6 -15.3°
Sets 05:13:23 0° 178° (S) 2,560 10.4 -14.8°
